Tillbaka till svenska Fidonet
English   Information   Debug  
FILM   0/18
FNEWS_PUBLISH   5034
FN_SYSOP   42247
FN_SYSOP_OLD1   71952
FTP_FIDO   0/2
FTSC_PUBLIC   0/13979
FUNNY   0/4886
GENEALOGY.EUR   0/71
GET_INFO   105
GOLDED   0/408
HAM   3211/16786
HOLYSMOKE   0/6791
HOT_SITES   0/1
HTMLEDIT   0/71
HUB203   466
HUB_100   264
HUB_400   39
HUMOR   0/29
IC   0/2851
INTERNET   0/424
INTERUSER   0/3
IP_CONNECT   719
JAMNNTPD   0/233
JAMTLAND   0/47
KATTY_KORNER   0/41
LAN   0/16
LINUX-USER   0/19
LINUXHELP   0/1155
LINUX   0/22427
LINUX_BBS   0/957
mail   18.68
mail_fore_ok   249
MENSA   0/341
MODERATOR   0/102
MONTE   0/992
MOSCOW_OKLAHOMA   0/1245
MUFFIN   0/783
MUSIC   0/321
N203_STAT   938
N203_SYSCHAT   313
NET203   321
NET204   69
NET_DEV   0/10
NORD.ADMIN   0/101
NORD.CHAT   0/2572
NORD.FIDONET   189
NORD.HARDWARE   0/28
NORD.KULTUR   0/114
NORD.PROG   0/32
NORD.SOFTWARE   0/88
NORD.TEKNIK   0/58
NORD   0/453
OCCULT_CHAT   0/93
OS2BBS   0/787
OS2DOSBBS   0/580
OS2HW   0/42
OS2INET   0/37
OS2LAN   0/134
OS2PROG   0/36
OS2REXX   0/113
OS2USER-L   207
OS2   0/4835
OSDEBATE   0/18996
PASCAL   0/490
PERL   0/457
PHP   0/45
POINTS   0/405
POLITICS   0/29554
POL_INC   0/14731
PSION   103
R20_ADMIN   1133
R20_AMATORRADIO   0/2
R20_BEST_OF_FIDONET   16
R20_CHAT   0/897
R20_DEPP   0/3
R20_DEV   400
R20_ECHO2   1933
R20_ECHOPRES   0/35
R20_ESTAT   0/719
R20_FIDONETPROG...
...RAM.MYPOINT
  0/2
R20_FIDONETPROGRAM   0/22
R20_FIDONET   0/248
R20_FILEFIND   0/24
R20_FILEFOUND   0/22
R20_HIFI   0/3
R20_INFO2   3826
R20_INTERNET   0/12940
R20_INTRESSE   0/60
R20_INTR_KOM   0/99
R20_KANDIDAT.CHAT   42
R20_KANDIDAT   28
R20_KOM_DEV   112
R20_KONTROLL   0/13360
R20_KORSET   0/18
R20_LOKALTRAFIK   0/24
R20_MODERATOR   0/1852
R20_NC   76
R20_NET200   245
R20_NETWORK.OTH...
...ERNETS
  0/13
R20_OPERATIVSYS...
...TEM.LINUX
  0/44
R20_PROGRAMVAROR   0/1
R20_REC2NEC   534
R20_SFOSM   0/341
R20_SF   0/108
R20_SPRAK.ENGLISH   0/1
R20_SQUISH   107
R20_TEST   2
R20_WORST_OF_FIDONET   20
RAR   0/9
RA_MULTI   106
RA_UTIL   0/162
REGCON.EUR   0/2072
REGCON   0/13
SCIENCE   0/1206
SF   0/239
SHAREWARE_SUPPORT   0/5146
SHAREWRE   0/14
SIMPSONS   0/169
STATS_OLD1   0/2539.065
STATS_OLD2   0/2530
STATS_OLD3   0/2395.095
STATS_OLD4   0/1692.25
SURVIVOR   0/495
SYSOPS_CORNER   0/3
SYSOP   0/84
TAGLINES   0/112
TEAMOS2   0/4530
TECH   0/2617
TEST.444   0/105
TRAPDOOR   0/19
TREK   0/755
TUB   0/290
UFO   0/40
UNIX   0/1316
USA_EURLINK   0/102
USR_MODEMS   0/1
VATICAN   0/2740
VIETNAM_VETS   0/14
VIRUS   0/378
VIRUS_INFO   0/201
VISUAL_BASIC   0/473
WHITEHOUSE   0/5187
WIN2000   0/101
WIN32   0/30
WIN95   0/4291
WIN95_OLD1   0/70272
WINDOWS   0/1517
WWB_SYSOP   0/419
WWB_TECH   0/810
ZCC-PUBLIC   0/1
ZEC   4

 
4DOS   0/134
ABORTION   0/7
ALASKA_CHAT   0/506
ALLFIX_FILE   0/1313
ALLFIX_FILE_OLD1   0/7997
ALT_DOS   0/152
AMATEUR_RADIO   0/1039
AMIGASALE   0/14
AMIGA   0/331
AMIGA_INT   0/1
AMIGA_PROG   0/20
AMIGA_SYSOP   0/26
ANIME   0/15
ARGUS   0/924
ASCII_ART   0/340
ASIAN_LINK   0/651
ASTRONOMY   0/417
AUDIO   0/92
AUTOMOBILE_RACING   0/105
BABYLON5   0/17862
BAG   135
BATPOWER   0/361
BBBS.ENGLISH   0/382
BBSLAW   0/109
BBS_ADS   0/5290
BBS_INTERNET   0/507
BIBLE   0/3563
BINKD   0/1119
BINKLEY   0/215
BLUEWAVE   0/2173
CABLE_MODEMS   0/25
CBM   0/46
CDRECORD   0/66
CDROM   0/20
CLASSIC_COMPUTER   0/378
COMICS   0/15
CONSPRCY   0/899
COOKING   42382
COOKING_OLD1   0/24719
COOKING_OLD2   0/40862
COOKING_OLD3   0/37489
COOKING_OLD4   0/35496
COOKING_OLD5   9370
C_ECHO   0/189
C_PLUSPLUS   0/31
DIRTY_DOZEN   0/201
DOORGAMES   0/2388
DOS_INTERNET   0/196
duplikat   6102
ECHOLIST   0/18295
EC_SUPPORT   0/318
ELECTRONICS   0/359
ELEKTRONIK.GER   1534
ENET.LINGUISTIC   0/13
ENET.POLITICS   0/4
ENET.SOFT   0/11701
ENET.SYSOP   34388
ENET.TALKS   0/32
ENGLISH_TUTOR   0/2000
EVOLUTION   0/1335
FDECHO   0/217
FDN_ANNOUNCE   0/7068
FIDONEWS   25217
FIDONEWS_OLD1   0/49742
FIDONEWS_OLD2   0/35949
FIDONEWS_OLD3   0/30874
FIDONEWS_OLD4   0/37224
FIDO_SYSOP   12977
FIDO_UTIL   0/180
FILEFIND   0/209
FILEGATE   0/212
Möte HAM, 16786 texter
 lista första sista föregående nästa
Text 2989, 787 rader
Skriven 2009-05-28 23:30:21 av Amsat List (1:323/120.0)
Ärende: [keps]  orb09148.amsa
=============================
[keps]  orb09148.amsa

Return-Path: <keps-bounces@amsat.org>
X-Rcpt: craig.healy@chowda.com
X-UIDL: 1243566215.55146

SB KEPS @ AMSAT  $ORB09148.O
Orbital Elements  09148.OSCAR

HR AMSAT ORBITAL ELEMENTS FOR OSCAR SATELLITES
FROM WA5QGD FORT WORTH,TX May 28, 2009
Send Subscribe/unsubscribe to KEPS at 
http://www.amsat.org/mailman/listinfo/keps
BID: ORB09148.O
TO ALL RADIO AMATEURS BT

Satellite: AO-07
Catalog number: 07530
Epoch time:      09148.53617437
Element set:     489
Inclination:      101.4283 deg
RA of node:       173.9340 deg
Eccentricity:    0.0011645
Arg of perigee:   307.9840 deg
Mean anomaly:     052.0181 deg
Mean motion:   12.53575783 rev/day
Decay rate:       -2.7e-07 rev/day^2
Epoch rev:           58025
Checksum:              299

Satellite: FO-29
Catalog number: 24278
Epoch time:      09148.77582746
Element set:      52
Inclination:      098.5567 deg
RA of node:       025.4201 deg
Eccentricity:    0.0351199
Arg of perigee:   040.7903 deg
Mean anomaly:     321.8972 deg
Mean motion:   13.52943919 rev/day
Decay rate:       -6.9e-07 rev/day^2
Epoch rev:           63112
Checksum:              332

Satellite: SO-33
Catalog number: 25509
Epoch time:      09147.43646910
Element set:    0463
Inclination:      031.4292 deg
RA of node:       169.8365 deg
Eccentricity:    0.0354444
Arg of perigee:   157.1774 deg
Mean anomaly:     204.5057 deg
Mean motion:   14.28252896 rev/day
Decay rate:       2.23e-06 rev/day^2
Epoch rev:           55286
Checksum:              322

Satellite: RS-22
Catalog number: 27939
Epoch time:      09147.82169533
Element set:    0801
Inclination:      097.9483 deg
RA of node:       023.4312 deg
Eccentricity:    0.0013122
Arg of perigee:   192.6820 deg
Mean anomaly:     167.4068 deg
Mean motion:   14.63318634 rev/day
Decay rate:        8.8e-07 rev/day^2
Epoch rev:           30259
Checksum:              310

Satellite: VO-52
Catalog number: 28650
Epoch time:      09148.59901282
Element set:     234
Inclination:      097.7438 deg
RA of node:       210.8267 deg
Eccentricity:    0.0028469
Arg of perigee:   093.9376 deg
Mean anomaly:     266.5117 deg
Mean motion:   14.81587587 rev/day
Decay rate:       1.10e-06 rev/day^2
Epoch rev:           21974
Checksum:              342

/EX
SB KEPS @ AMSAT  $ORB09148.D
Orbital Elements  09148.MICROS

HR AMSAT ORBITAL ELEMENTS FOR THE MICROSATS
FROM WA5QGD FORT WORTH,TX May 28, 2009
Send Subscribe/unsubscribe to KEPS at 
http://www.amsat.org/mailman/listinfo/keps
BID: ORB09148.D
TO ALL RADIO AMATEURS BT

Satellite: AO-16
Catalog number: 20439
Epoch time:      09148.49751321
Element set:     614
Inclination:      098.2771 deg
RA of node:       117.7977 deg
Eccentricity:    0.0010081
Arg of perigee:   227.2315 deg
Mean anomaly:     132.8036 deg
Mean motion:   14.31824811 rev/day
Decay rate:     -.00000000 rev/day^2
Epoch rev:            1033
Checksum:              262

Satellite: LO-19
Catalog number: 20442
Epoch time:      09147.85901474
Element set:    0535
Inclination:      098.2401 deg
RA of node:       124.5297 deg
Eccentricity:    0.0011201
Arg of perigee:   224.4779 deg
Mean anomaly:     135.5512 deg
Mean motion:   14.32060984 rev/day
Decay rate:        7.3e-07 rev/day^2
Epoch rev:           01040
Checksum:              273

Satellite: AO-27
Catalog number: 22825
Epoch time:      09147.84386774
Element set:     252
Inclination:      098.4356 deg
RA of node:       101.9100 deg
Eccentricity:    0.0007831
Arg of perigee:   330.1207 deg
Mean anomaly:     029.9534 deg
Mean motion:   14.29265704 rev/day
Decay rate:       -7.7e-07 rev/day^2
Epoch rev:           81700
Checksum:              301

Satellite: IO-26
Catalog number: 22826
Epoch time:      09148.74756913
Element set:     979
Inclination:      098.4286 deg
RA of node:       103.5414 deg
Eccentricity:    0.0008516
Arg of perigee:   323.3601 deg
Mean anomaly:     036.6994 deg
Mean motion:   14.29517667 rev/day
Decay rate:       -3.2e-07 rev/day^2
Epoch rev:           81723
Checksum:              333

Satellite: GO-32
Catalog number: 25397
Epoch time:      09147.89468389
Element set:    0905
Inclination:      098.3270 deg
RA of node:       171.3216 deg
Eccentricity:    0.0000673
Arg of perigee:   008.8446 deg
Mean anomaly:     351.2753 deg
Mean motion:   14.23159072 rev/day
Decay rate:       -2.0e-08 rev/day^2
Epoch rev:           56524
Checksum:              314

Satellite: NO-44
Catalog number: 26931
Epoch time:      09147.85534379
Element set:    0180
Inclination:      067.0499 deg
RA of node:       116.7234 deg
Eccentricity:    0.0005586
Arg of perigee:   269.9025 deg
Mean anomaly:     090.1457 deg
Mean motion:   14.29556651 rev/day
Decay rate:      -1.13e-06 rev/day^2
Epoch rev:           39967
Checksum:              339

Satellite: SO-50
Catalog number: 27607
Epoch time:      09147.59478743
Element set:    0896
Inclination:      064.5585 deg
RA of node:       087.6310 deg
Eccentricity:    0.0069493
Arg of perigee:   210.4468 deg
Mean anomaly:     149.2594 deg
Mean motion:   14.71437992 rev/day
Decay rate:       -3.5e-07 rev/day^2
Epoch rev:           34564
Checksum:              355

Satellite: CO-55
Catalog number: 27844
Epoch time:      09148.55334815
Element set:     588
Inclination:      098.7120 deg
RA of node:       157.9963 deg
Eccentricity:    0.0009331
Arg of perigee:   196.2101 deg
Mean anomaly:     163.8792 deg
Mean motion:   14.20639502 rev/day
Decay rate:        6.2e-07 rev/day^2
Epoch rev:           30647
Checksum:              322

